Regional Weather Roundup
Issued by NWS

Home | Current Version | Previous Version | Text Only | Print | Product List | Glossary On
Versions: 1 2 3 4 5 6 7 8 9 10 11 12 13 14 15 16 17 18 19 20 21 22 23 24 25 26 27 28 29 30 31 32 33 34 35 36 37 38 39 40 41 42 43 44 45 46 47 48 49 50
000
ASUS43 KMKX 030500
RWRWI

WISCONSIN REGIONAL WEATHER ROUNDUP
NATIONAL WEATHER SERVICE MILWAUKEE/SULLIVAN WI
1100 PM CST FRI DEC 02 2016

NOTE: "FAIR" INDICATES FEW OR NO CLOUDS BELOW 12,000 FEET WITH NO
SIGNIFICANT WEATHER AND/OR OBSTRUCTIONS TO VISIBILITY.

WIZ001-002-006>008-014>016-023>028-030600-
NORTHWEST WISCONSIN

CITY           SKY/WX    TMP DP  RH WIND       PRES   REMARKS
SUPERIOR ARPT  CLOUDY    30  24  78 NW7       30.27S WCI  23
ASHLAND        CLOUDY    29  24  82 VRB7      30.27R WCI  22
HAYWARD        CLOUDY    29  22  75 SW3       30.26R
SIREN          CLOUDY    29  24  81 W5        30.28S WCI  24
CUMBERLAND     CLOUDY    28  23  80 CALM      30.27R
RICE LAKE      CLOUDY    30  23  75 W3        30.29F
CHETEK         CLOUDY    30  24  79 CALM      30.27F
LADYSMITH      CLOUDY    29  24  81 W6        30.28S WCI  23
EAU CLAIRE     NOT AVBL
MENOMONIE      CLOUDY    32  26  80 W6        30.29S WCI  26
NEW RICHMOND   CLOUDY    30  24  81 CALM      30.29S
OSCEOLA        CLOUDY    30  25  80 CALM      30.32S
$$

WIZ003>005-009-010-017-018-030600-
NORTH CENTRAL WISCONSIN

CITY           SKY/WX    TMP DP  RH WIND       PRES   REMARKS
MANITOWISH WTR CLOUDY    27  27 100 W5        30.22R WCI  22
ARBOR VITAE    CLOUDY    32  30  93 W5        30.22R FOG     WCI  27
WOODRUFF       CLOUDY    32  30  93 W5        30.22R FOG     WCI  27
RHINELANDER    CLOUDY    29  27  92 W6        30.22R WCI  23
EAGLE RIVER    CLOUDY    29  27  93 CALM      30.21R
LAND O LAKES   CLOUDY    29  28  95 NW5       30.22R WCI  24
PHILLIPS       CLOUDY    26  23  87 W3        30.24S
TOMAHAWK       NOT AVBL
MEDFORD        CLOUDY    28  23  82 W6        30.25R WCI  21
MERRILL        CLOUDY    30  24  79 NW3       30.26R
$$

WIZ029-030-035-036-043>047-030600-
CENTRAL WISCONSIN

CITY           SKY/WX    TMP DP  RH WIND       PRES   REMARKS
WAUSAU         CLOUDY    30  23  75 W6        30.25R WCI  24
MOSINEE        CLOUDY    30  25  80 NW5       30.27R WCI  25
MARSHFIELD     CLOUDY    29  23  78 W5        30.26R WCI  24
STEVENS POINT  CLOUDY    29  22  75 CALM      30.28R
WAUPACA        CLOUDY    33  25  72 W8        30.29R WCI  26
WAUTOMA        CLOUDY    31  23  72 W6        30.30S WCI  25
WISC RAPIDS    CLOUDY    31  24  75 N7        30.30R WCI  24
CAMP DOUGLAS   NOT AVBL
$$

WIZ011>013-019>022-031-037>040-048>050-030600-
NORTHEAST WISCONSIN

CITY           SKY/WX    TMP DP  RH WIND       PRES   REMARKS
ANTIGO         CLOUDY    29  24  83 W7        30.24R WCI  22
SHAWANO        CLOUDY    35  27  74 W5        30.27R WCI  31
OCONTO         CLOUDY    34  28  77 W5        30.26R WCI  30
STURGEON BAY   CLOUDY    36  28  73 NW9       30.25R WCI  29
GREEN BAY      CLOUDY    35  29  78 W8        30.27R WCI  29
MANITOWOC      NOT AVBL
APPLETON       CLOUDY    32  25  74 W9        30.25S WCI  24
CLINTONVILLE   CLOUDY    32  27  80 W5        30.27R WCI  27
OSHKOSH        CLOUDY    32  24  72 W5        30.29R WCI  27
$$

WIZ032>034-041-042-053>061-030600-
SOUTHWEST WISCONSIN

CITY           SKY/WX    TMP DP  RH WIND       PRES   REMARKS
LA CROSSE      CLOUDY    34  22  61 W7        30.32R WCI  28
SPARTA         CLOUDY    32  24  73 W5        30.32R WCI  27
VIROQUA        CLOUDY    30  23  75 NW8       30.29R WCI  22
BOSCOBEL       CLOUDY    33  22  63 W5        30.34R WCI  29
PRAIRIE DU CHI NOT AVBL
PLATTEVILLE    NOT AVBL
$$

WIZ056-057-062-063-064-067-068-030600-
SOUTH CENTRAL WISCONSIN

CITY           SKY/WX    TMP DP  RH WIND       PRES   REMARKS
REEDSBURG      CLOUDY    31  24  74 W6        30.30S WCI  25
BARABOO/DELLS  CLOUDY    30  22  73 W3        30.29F
LONE ROCK      NOT AVBL
MINERAL POINT  CLOUDY    32  27  80 CALM      30.29S
MADISON        CLOUDY    31  22  69 W6        30.31S WCI  25
MIDDLETON      CLOUDY    32  26  77 NW8       30.31R WCI  25
WATERTOWN      CLOUDY    31  25  77 W6        30.29F WCI  25
MONROE         CLOUDY    32  23  69 W7        30.30R WCI  26
JANESVILLE     CLOUDY    32  27  80 NW6       30.30S WCI  26
$$

WIZ051-052-058>065-066-070>072-030600-
SOUTHEAST WISCONSIN

CITY           SKY/WX    TMP DP  RH WIND       PRES   REMARKS
MILWAUKEE      CLOUDY    34  23  64 NW7       30.30S WCI  28
WAUKESHA       CLOUDY    30  23  74 NW7       30.30S WCI  23
MILWAUKEE/TIMM CLOUDY    32  21  64 W8        30.31R WCI  25
RACINE         CLOUDY    33  22  63 W6        30.32S WCI  28
BURLINGTON     CLOUDY    32  24  72 CALM      30.30F
KENOSHA        CLOUDY    33  23  66 NW6       30.31S WCI  28
FOND DU LAC    CLOUDY    32  22  66 W8        30.29S WCI  25
SHEBOYGAN      CLOUDY    32  25  75 W8        30.28S WCI  25
WEST BEND      CLOUDY    32  27  80 W5        30.28S WCI  27
JUNEAU         CLOUDY    30  23  74 CALM      30.30S
$$

LSZ147-162-030600-
LAKE SUPERIOR

STATION/POSITION TIME  TEMP    WIND        PRES    WAVE
                       AIR SEA DIR/SP/G            HT/PER
                 (UTC) (F)     (DEG/KT/KT) (MB)    (FT/S)
DEVILS ISLAND    0400   33     280/  7/  9 1025.1S
PORT WING        0440   31     210/  5/  9 1024.7S
SAXON HARBOR     0440   30     200/  7/  9 1024.4S
$$

LMZ867-665-643>646-030600-
LAKE MICHIGAN

STATION/POSITION TIME  TEMP    WIND        PRES    WAVE
                       AIR SEA DIR/SP/G            HT/PER
                 (UTC) (F)     (DEG/KT/KT) (MB)    (FT/S)
CHAMBERS ISLAND  0440   37     300/  6/ 11 1023.7R
NORTHPORT PIER   0430   38     310/ 11/ 14 1023.4S
SISTER BAY       0253   38     330/ 14/ 17   N/A
ALGOMA LAKESHORE 0251          320/  3/  6   N/A
KEWAUNEE LAKESHO 0430   35     280/  7/  9 1023.9R
SHEBOYGAN LAKESH 0400   34     270/ 12/ 13 1025.7R
PORT WASHINGTON  0440   34     320/  5/  8 1026.8S
MILWAUKEE LAKESH 0430   33     270/  8/  9   N/A
S MID LAKE BUOY  0350   37 49  300/ 10/ 14 1025.9S   2/ 5
KENOSHA   LAKESH 0400   34     300/  5/  8 1026.1
$$

TC  - TEMPERATURE IN CELSIUS
VSB - VISIBILITY IN STATUTE MILES
WCI - WIND CHILL INDEX
HX  - HEAT INDEX





USA.gov is the U.S. government's official web portal to all federal, state and local government web resources and services.